FW4206 Weather Reports


time (UTC)temp
C
wind
direction
speed
KPH
gust
KPH
rain 1hr
cm
rain 24hr
cm
rain mn
cm
humidity
%
barometer
mb
20260503203111 17 359 11.3 20.9 0.00 0.00 0.00 61 1019.7
20260503201628 17 359 17.7 27.4 0.00 0.00 0.00 62 1019.4
20260503200037 17 359 22.5 29.0 0.00 0.00 0.00 62 1019.2
20260503194550 17 359 22.5 33.8 0.00 0.00 0.00 62 1019.2
20260503191620 17 359 22.5 37.0 0.00 0.00 0.00 61 1019.1
20260503190105 17 359 16.1 37.0 0.00 0.00 0.00 59 1019.1
20260503184512 17 359 20.9 32.2 0.00 0.00 0.00 57 1019.0
20260503183015 17 359 25.7 37.0 0.00 0.00 0.00 57 1018.9
20260503181510 17 359 24.1 33.8 0.00 0.00 0.00 57 1019.0
20260503180051 18 359 22.5 37.0 0.00 0.00 0.00 56 1019.1
20260503174538 17 359 20.9 40.2 0.00 0.00 0.00 55 1019.1
20260503173048 17 359 27.4 38.6 0.00 0.00 0.00 56 1019.0
20260503171541 17 359 22.5 37.0 0.00 0.00 0.00 56 1019.2
20260503100107 19 359 4.8 12.9 0.00 0.00 0.00 52 1021.4
20260503081540 17 359 1.6 16.1 0.00 0.00 0.00 62 1021.4
20260503071606 16 359 6.4 16.1 0.00 0.00 0.00 66 1021.3
20260503054536 15 359 6.4 16.1 0.00 0.00 0.00 67 1020.8
20260503053024 15 359 6.4 16.1 0.00 0.00 0.00 68 1020.6
20260503051501 15 359 4.8 12.9 0.00 0.00 0.00 68 1020.5
20260503050059 15 359 8.0 14.5 0.00 0.00 0.00 67 1020.5
20260503044522 15 359 3.2 14.5 0.00 0.00 0.00 67 1020.3
20260503043018 15 359 3.2 9.7 0.00 0.00 0.00 66 1020.3
20260503041517 15 359 9.7 17.7 0.00 0.00 0.00 66 1020.3
20260503040012 15 359 8.0 19.3 0.00 0.00 0.00 66 1020.4
20260503034511 15 359 6.4 16.1 0.00 0.00 0.00 66 1020.4
20260503033011 15 359 8.0 16.1 0.00 0.00 0.00 66 1020.4
20260503031505 16 359 3.2 12.9 0.00 0.00 0.00 65 1020.6
20260503030004 16 359 6.4 12.9 0.00 0.00 0.00 64 1020.6
20260503024504 16 359 4.8 14.5 0.00 0.00 0.00 64 1020.6
20260503023002 16 359 6.4 12.9 0.00 0.00 0.00 63 1020.7
20260503021602 16 359 1.6 9.7 0.00 0.00 0.00 63 1020.8
20260503021502 16 359 3.2 9.7 0.00 0.00 0.00 63 1020.8
20260503014624 17 359 3.2 8.0 0.00 0.00 0.00 62 1020.9
20260503013100 17 359 3.2 8.0 0.00 0.00 0.00 62 1020.9
20260503011618 17 359 3.2 14.5 0.00 0.00 0.00 63 1021.1
20260503010058 17 359 3.2 9.7 0.00 0.00 0.00 63 1021.3
20260503004604 17 238 4.8 8.0 0.00 0.00 0.00 64 1021.7
20260503003057 17 359 4.8 9.7 0.00 0.00 0.00 64 1021.9
20260503001556 17 359 6.4 12.9 0.00 0.00 0.00 65 1021.9
20260503000050 17 359 6.4 12.9 0.00 0.00 0.00 67 1021.9
20260502234552 17 359 9.7 16.1 0.00 0.00 0.00 67 1021.8
20260502233053 17 359 8.0 17.7 0.00 0.00 0.00 68 1021.9
20260502231549 17 359 8.0 14.5 0.00 0.00 0.00 68 1022.0
20260502230047 17 359 9.7 17.7 0.00 0.00 0.00 68 1022.0
20260502224601 17 359 9.7 20.9 0.00 0.00 0.00 67 1021.9
20260502223046 17 359 8.0 22.5 0.00 0.00 0.00 67 1021.9
20260502221545 17 359 12.9 19.3 0.00 0.00 0.00 66 1022.0
20260502220043 17 359 9.7 22.5 0.00 0.00 0.00 66 1022.0
20260502214542 17 359 14.5 24.1 0.00 0.00 0.00 66 1021.8
20260502213042 17 359 14.5 22.5 0.00 0.00 0.00 66 1021.9
20260502211548 17 359 16.1 22.5 0.00 0.00 0.00 67 1021.8
20260502210040 17 359 11.3 22.5 0.00 0.00 0.00 66 1021.7
20260502204540 17 359 14.5 22.5 0.00 0.00 0.00 66 1021.6